User: anonymous   Login
Location: Bacea
(45.9500°N, 22.6667°E)
Time: 18:36:42
(UTC+00:00)
Language:

Cosmos 1908 - Orbit

View from above orbital plane
View from above orbital plane
View from above satellite
View from above satellite

Ground track
Ground track

The orbit data is extracted from the following two-line orbital elements,

1 18748U 88001A   22021.90648093  .00002787  00000-0  14365-3 0  9997
2 18748  82.4702 200.0260 0012622 194.5701 165.5169 15.15917494859778
Epoch (UTC): 21 January 2022 21:45:19
Eccentricity: 0.0012622
inclination: 82.4702°
perigee height: 509 km
apogee height: 527 km
right ascension of ascending node: 200.0260°
argument of perigee: 194.5701°
revolutions per day: 15.15917494
mean anomaly at epoch: 165.5169°
orbit number at epoch: 85977

The dashed part of the orbit path shows where the satellite is in the earth's shadow,  

DLR